Weather History for Nuiqsut, AK

Change the Weather History Date:

Thursday, October 4, 2012

  Actual Average (PAKU) Record (PAKU)
Temperature  
Mean Temperature 31 °F -  
Max Temperature 36 °F 26 °F 44 °F (1991)
Min Temperature 26 °F 20 °F -2 °F (1992)
Degree Days  
Heating Degree Days 34    
Moisture  
Dew Point 31 °F    
Average Humidity 97    
Maximum Humidity 100    
Minimum Humidity 92    
Precipitation  
Precipitation 0.00 in - - ()
Sea Level Pressure  
Sea Level Pressure 29.98 in    
Wind  
Wind Speed 6 mph (NE)    
Max Wind Speed 18 mph    
Max Gust Speed 23 mph    
Visibility 8 miles    
Events Fog    
Averages and records for this station are not official NWS values.
T = Trace of Precipitation, MM = Missing Value Source: NWS Daily Summary

Daily Weather History Graph

Daily Weather History Graph

Search for Another Location

Airport:

Trip Planner

Search our weather history database for the weather conditions in past years. The results will help you decide how hot, cold, wet, or windy it might be!

Date:

Astronomy

Oct. 04, 2012 Rise Set
Actual Time 8:35 AM AKDT 7:07 PM AKDT
Civil Twilight 7:33 AM AKDT 8:09 PM AKDT
Nautical Twilight 6:20 AM AKDT 9:21 PM AKDT
Astronomical Twilight 4:57 AM AKDT 10:42 PM AKDT
Moon No Moon Rise No Moon Set
Length of Visible Light 12h 35m
Length of Day
10h 32m
Waning Gibbous, 81% of the Moon is Illuminated
Oct 4
Waning Gibbous
Oct 7
Last Quarter
Oct 15
New
Oct 21
First Quarter
Oct 29
Full

Hourly Weather History & Observations

Time (AKDT) Temp. Windchill Dew Point Humidity Pressure Visibility Wind Dir Wind Speed Gust Speed Precip Events Conditions
12:53 AM 33.1 °F 28.7 °F 30.9 °F 92% 30.03 in 10.0 mi WSW 4.6 mph - N/A   Scattered Clouds
1:53 AM 30.0 °F 26.5 °F 30.0 °F 100% 30.04 in 10.0 mi SSW 3.5 mph - N/A   Partly Cloudy
2:53 AM 28.9 °F - 28.0 °F 96% 30.03 in 10.0 mi Calm Calm - N/A   Clear
3:53 AM 28.0 °F 24.2 °F 26.1 °F 92% 30.04 in 10.0 mi SSE 3.5 mph - N/A   Clear
4:53 AM 28.0 °F - 27.0 °F 96% 30.04 in 10.0 mi Calm Calm - N/A   Clear
5:53 AM 28.0 °F - 27.0 °F 96% 30.04 in 10.0 mi Calm Calm - N/A   Clear
6:53 AM 30.0 °F 25.2 °F 30.0 °F 100% 30.02 in 10.0 mi NNE 4.6 mph - N/A   Clear
7:40 AM 28.4 °F 23.3 °F 28.4 °F 100% 30.01 in 1.8 mi NNE 4.6 mph - N/A   Clear
7:53 AM 28.0 °F 22.8 °F 28.0 °F 100% 30.01 in 2.0 mi NNE 4.6 mph - N/A   Clear
8:01 AM 28.4 °F 23.3 °F 28.4 °F 100% 30.01 in 6.0 mi NNE 4.6 mph - N/A   Clear
8:35 AM 26.6 °F 22.6 °F 26.6 °F 100% 30.02 in 0.8 mi ESE 3.5 mph - N/A   Mostly Cloudy
8:53 AM 28.0 °F 24.2 °F 28.0 °F 100% 30.01 in 0.2 mi NE 3.5 mph - N/A Fog Light Freezing Fog
9:04 AM 28.4 °F 24.6 °F 28.4 °F 100% 30.01 in 0.2 mi NE 3.5 mph - N/A Fog Light Freezing Fog
9:47 AM 28.4 °F 23.3 °F 28.4 °F 100% 30.01 in 1.2 mi NE 4.6 mph - N/A   Scattered Clouds
9:53 AM 28.0 °F 21.7 °F 28.0 °F 100% 30.01 in 1.2 mi NE 5.8 mph - N/A   Scattered Clouds
10:07 AM 28.4 °F 22.2 °F 28.4 °F 100% 30.01 in 3.0 mi NE 5.8 mph - N/A   Partly Cloudy
10:21 AM 28.4 °F 22.2 °F 28.4 °F 100% 30.01 in 2.5 mi NE 5.8 mph - N/A   Clear
10:30 AM 30.2 °F 25.4 °F 28.4 °F 93% 30.01 in 9.0 mi NE 4.6 mph - N/A   Clear
10:53 AM 30.0 °F 23.2 °F 30.0 °F 100% 30.01 in 10.0 mi NE 6.9 mph - N/A   Clear
11:53 AM 33.1 °F 25.5 °F 33.1 °F 100% 30.00 in 10.0 mi NE 9.2 mph - 0.00 in   Clear
12:53 PM 35.1 °F 28.6 °F 34.0 °F 96% 29.99 in 10.0 mi NE 8.1 mph - N/A   Clear
1:53 PM 36.0 °F 29.0 °F 34.0 °F 93% 29.99 in 10.0 mi NE 9.2 mph - N/A   Clear
2:53 PM 36.0 °F 28.0 °F 34.0 °F 93% 29.97 in 10.0 mi NE 11.5 mph - N/A   Clear
3:53 PM 36.0 °F 28.5 °F 34.0 °F 93% 29.96 in 10.0 mi NE 10.4 mph - N/A   Overcast
4:53 PM 35.1 °F 26.9 °F 34.0 °F 96% 29.96 in 10.0 mi NE 11.5 mph - N/A   Overcast
5:53 PM 35.1 °F 26.4 °F 34.0 °F 96% 29.94 in 10.0 mi NE 12.7 mph - N/A   Overcast
6:53 PM 35.1 °F 25.9 °F 34.0 °F 96% 29.94 in 10.0 mi NE 13.8 mph - N/A   Overcast
7:04 PM 35.6 °F 27.1 °F 33.8 °F 93% 29.93 in 10.0 mi ENE 12.7 mph - N/A   Overcast
7:53 PM 35.1 °F 26.4 °F 34.0 °F 96% 29.93 in 10.0 mi ENE 12.7 mph - N/A   Unknown
8:53 PM 34.0 °F 25.5 °F 34.0 °F 100% 29.93 in 10.0 mi ENE 11.5 mph - N/A   Overcast
9:27 PM 35.6 °F 27.1 °F 33.8 °F 93% 29.93 in 10.0 mi ENE 12.7 mph - N/A   Overcast
9:37 PM 35.6 °F 26.6 °F 33.8 °F 93% 29.92 in 10.0 mi ENE 13.8 mph - N/A   Overcast
9:53 PM 35.1 °F 25.9 °F 34.0 °F 96% 29.93 in 10.0 mi ENE 13.8 mph - N/A   Unknown
10:15 PM 35.6 °F 26.2 °F 33.8 °F 93% 29.92 in 10.0 mi East 15.0 mph - N/A   Overcast
10:32 PM 35.6 °F 25.2 °F 33.8 °F 93% 29.92 in 10.0 mi East 18.4 mph - N/A   Overcast
10:53 PM 35.1 °F 24.8 °F 34.0 °F 96% 29.92 in 6.0 mi East 17.3 mph 23.0 mph N/A   Overcast
11:53 PM 35.1 °F 25.2 °F 35.1 °F 100% 29.91 in 3.0 mi East 16.1 mph - N/A   Overcast